This is the latest recevied weather packets stored in our database for station/object DM4XI-13. If no packets are shown the sender has not sent any weather packets the latest 1 day(s).
| Time | Temp. | Humidity | Pressure | Rain* | Wind** | Luminosity | Snow |
|---|---|---|---|---|---|---|---|
| 1778045168 | 12.78° C | 86% | 1005.2 hPa | 0 mm | 0.45 m/s, 179° | 89 W/m² | - |
| 1778045107 | 12.78° C | 86% | 1005.3 hPa | 0 mm | 0 m/s | 85 W/m² | - |
| 1778044985 | 12.78° C | 86% | 1005.2 hPa | 0 mm | 0.45 m/s, 194° | 82 W/m² | - |
| 1778044924 | 12.78° C | 86% | 1005.3 hPa | 0 mm | 0.45 m/s, 165° | 81 W/m² | - |
| 1778044863 | 12.78° C | 87% | 1005.2 hPa | 0 mm | 0 m/s | 87 W/m² | - |
| 1778044497 | 12.78° C | 87% | 1005.2 hPa | 0 mm | 0 m/s | 91 W/m² | - |
| 1778044435 | 12.22° C | 87% | 1005.3 hPa | 0 mm | 0 m/s | 92 W/m² | - |
| 1778044374 | 12.22° C | 89% | 1005.1 hPa | 0 mm | 0 m/s | 95 W/m² | - |
| 1778044314 | 12.22° C | 88% | 1005.2 hPa | 0 mm | 0 m/s | 93 W/m² | - |
| 1778044131 | 12.22° C | 89% | 1005.3 hPa | 0 mm | 0.45 m/s, 201° | 84 W/m² | - |
| 1778044008 | 12.22° C | 89% | 1005.4 hPa | 0 mm | 0.45 m/s, 182° | 79 W/m² | - |
| 1778043948 | 11.67° C | 89% | 1005.4 hPa | 0 mm | 0.45 m/s, 235° | 76 W/m² | - |
| 1778043887 | 11.67° C | 90% | 1005.6 hPa | 0 mm | 0 m/s | 80 W/m² | - |
| 1778043827 | 11.67° C | 90% | 1005.5 hPa | 0 mm | 0.45 m/s, 209° | 79 W/m² | - |
| 1778043766 | 11.67° C | 90% | 1005.4 hPa | 0 mm | 0.89 m/s, 180° | 77 W/m² | - |
| 1778043583 | 11.67° C | 91% | 1005.4 hPa | 0 mm | 0.45 m/s, 185° | 77 W/m² | - |
| 1778043460 | 11.11° C | 91% | 1005.7 hPa | 0 mm | 0.45 m/s, 179° | 74 W/m² | - |
| 1778043400 | 11.11° C | 92% | 1005.4 hPa | 0 mm | 0.45 m/s, 178° | 71 W/m² | - |
| 1778043216 | 11.11° C | 92% | 1005.5 hPa | 0 mm | 0.45 m/s, 180° | 71 W/m² | - |
| 1778043155 | 11.11° C | 92% | 1005.8 hPa | 0 mm | 0.89 m/s, 189° | 71 W/m² | - |
| 1778043094 | 11.11° C | 92% | 1005.7 hPa | 0 mm | 0.45 m/s, 169° | 71 W/m² | - |
| 1778043033 | 11.11° C | 93% | 1005.7 hPa | 0 mm | 0.89 m/s, 176° | 70 W/m² | - |
| 1778042972 | 11.11° C | 93% | 1005.6 hPa | 0 mm | 0.89 m/s, 188° | 67 W/m² | - |
| 1778042911 | 11.11° C | 93% | 1005.6 hPa | 0 mm | 0.45 m/s, 195° | 67 W/m² | - |
| 1778042850 | 10.56° C | 93% | 1005.6 hPa | 0 mm | 0.89 m/s, 194° | 61 W/m² | - |
* Rain latest hour (hover to see other rain measurements)
** Current wind speed in m/s (hover to see current wind gust speed)